Home   Weather   Kingston upon Hull   Past weeks

Flag for United Kingdom Past Weather in Kingston upon Hull, England, United Kingdom — Yesterday and Last 2 Weeks

54 °F

Passing clouds.

Feels Like: 53 °F
Forecast: 47 / 61 °F
Wind: 3 mph from West

Location: Humberside

Current Time: Oct 29, 2016 at 12:41:12 AM

Latest Report: Oct 28, 2016 at 11:50 PM

Visibility: 3 mi

Pressure: 30.54 "Hg

Humidity: 94%

Dew Point: 52 °F

Location of Kingston upon HullLocation

Past Weather in Kingston upon Hull — Graph


Kingston upon Hull Temperature Yesterday

Maximum temperature yesterday: 59 °F (at 11:50 AM)
Minimum temperature yesterday: 54 °F (at 11:20 PM)
Average temperature yesterday: 57 °F

High & Low Weather Summary for the Past Weeks

High61 °F (Oct 16, 2:20 PM)100% (Oct 14, 4:50 AM)30.54 "Hg (Oct 14, 4:50 AM)
Low39 °F (Oct 24, 4:50 AM)59% (Oct 18, 1:20 PM)29.65 "Hg (Oct 15, 4:20 AM)
Average52 °F88%30.06 "Hg
* Reported Oct 13 11:20 PM — Oct 28 11:20 PM, Kingston upon Hull, Weather by CustomWeather, © 2016

Note: Actual official high and low records may vary slightly from our data, if they occured in-between our weather recording intervals... More about our weather records


Kingston upon Hull Weather History for the Previous 24 Hours

Scroll right to see more
Time TempWeatherWind HumidityBarometerVisibility
11:20 PM
Fri, Oct 28
54 °FHaze.3 mph94%30.54 "Hg3 mi
10:50 PM55 °FCool.6 mph88%30.54 "Hg4 mi
10:20 PM55 °FHaze.8 mph88%30.54 "Hg2 mi
9:50 PM55 °FPassing clouds.8 mph88%30.54 "Hg3 mi
9:20 PM55 °FPartly cloudy.7 mph88%30.54 "HgN/A
8:50 PM55 °FPartly cloudy.7 mph88%30.54 "HgN/A
8:20 PM55 °FPartly cloudy.5 mph88%30.54 "HgN/A
7:50 PM55 °FMostly cloudy.2 mph88%30.54 "HgN/A
7:20 PM55 °FMostly cloudy.No wind88%30.54 "HgN/A
6:50 PM55 °FMostly cloudy.No wind88%30.54 "HgN/A
6:20 PM55 °FPartly cloudy.2 mph88%30.54 "HgN/A
5:20 PM57 °FPartly sunny.No wind77%30.51 "HgN/A
4:50 PM59 °FPartly sunny.2 mph72%30.51 "HgN/A
4:20 PM59 °FPartly sunny.6 mph72%30.51 "HgN/A
3:50 PM59 °FPartly sunny.7 mph72%30.51 "HgN/A
3:20 PM59 °FBroken clouds.10 mph72%30.51 "HgN/A
2:50 PM59 °FBroken clouds.10 mph72%30.51 "HgN/A
2:20 PM59 °FPassing clouds.6 mph72%30.48 "HgN/A
1:50 PM59 °FPassing clouds.9 mph68%30.48 "HgN/A
1:20 PM59 °FPassing clouds.8 mph77%30.48 "HgN/A
12:20 PM59 °FPassing clouds.8 mph82%30.48 "HgN/A
11:50 AM59 °FPassing clouds.9 mph82%30.48 "HgN/A
11:20 AM57 °FPassing clouds.7 mph94%30.48 "HgN/A
10:50 AM57 °FPassing clouds.12 mph88%30.45 "HgN/A
10:20 AM57 °FPassing clouds.13 mph94%30.45 "HgN/A
9:50 AM57 °FPassing clouds.9 mph88%30.45 "HgN/A
9:20 AM57 °FPassing clouds.10 mph88%30.45 "HgN/A
8:50 AM57 °FPassing clouds.12 mph88%30.42 "HgN/A
8:20 AM57 °FPassing clouds.9 mph88%30.39 "HgN/A
7:50 AM57 °FPassing clouds.8 mph88%30.39 "HgN/A
7:20 AM57 °FPassing clouds.7 mph88%30.39 "HgN/A
6:50 AM57 °FClear.14 mph88%30.36 "Hg10 mi
6:20 AM57 °FClear.15 mph88%30.36 "Hg10 mi
5:50 AM57 °FClear.14 mph88%30.33 "Hg10 mi
5:20 AM57 °FCool.15 mph88%30.33 "HgN/A
4:50 AM57 °FCool.15 mph88%30.33 "HgN/A
4:20 AM57 °FCool.17 mph88%30.33 "HgN/A
3:50 AM57 °FCool.14 mph82%30.33 "HgN/A
3:20 AM57 °FCool.15 mph82%30.30 "HgN/A
2:50 AM55 °FCool.13 mph88%30.33 "HgN/A
2:20 AM55 °FCool.12 mph88%30.33 "HgN/A
1:50 AM55 °FCool.13 mph88%30.33 "HgN/A
1:20 AM57 °FCool.10 mph82%30.33 "HgN/A
12:50 AM57 °FCool.13 mph82%30.30 "HgN/A
12:20 AM57 °FCool.9 mph82%30.30 "HgN/A
Weather by CustomWeather, © 2016

See weather overviewHow to use our weather pages